Year,Month,Day,Hour,Minute,Value (Times are PST for temperature in C)
2014,07,12,09,49,22.90
2014,07,12,09,50,22.90
2014,07,12,09,51,22.90
2014,07,12,09,52,22.90
2014,07,12,09,53,22.90
2014,07,12,09,54,22.90
2014,07,12,09,55,22.90
2014,07,12,09,56,23.00
2014,07,12,09,57,23.10
2014,07,12,09,58,23.20
2014,07,12,09,59,23.40
2014,07,12,10,00,23.40
2014,07,12,10,01,23.40
2014,07,12,10,02,23.40
2014,07,12,10,03,23.40
2014,07,12,10,04,23.30
2014,07,12,10,05,23.30
2014,07,12,10,06,23.20
2014,07,12,10,07,23.20
2014,07,12,10,08,23.10
2014,07,12,10,09,23.10
2014,07,12,10,10,23.00
2014,07,12,10,11,22.90
2014,07,12,10,12,22.90
2014,07,12,10,13,22.90
2014,07,12,10,14,22.90
2014,07,12,10,15,22.90
2014,07,12,10,16,22.80
2014,07,12,10,17,22.80
2014,07,12,10,18,22.80
2014,07,12,10,19,22.80
2014,07,12,10,20,22.90
2014,07,12,10,21,22.90
2014,07,12,10,22,22.90
2014,07,12,10,23,23.10
2014,07,12,10,24,23.20
2014,07,12,10,25,23.20
2014,07,12,10,26,23.30
2014,07,12,10,27,23.40
2014,07,12,10,28,23.40
2014,07,12,10,29,23.50
2014,07,12,10,30,23.60
2014,07,12,10,31,23.70
2014,07,12,10,32,23.70
2014,07,12,10,33,23.70
2014,07,12,10,34,23.70
2014,07,12,10,35,23.70
2014,07,12,10,36,23.70
2014,07,12,10,37,23.70
2014,07,12,10,38,23.60
2014,07,12,10,39,23.60
2014,07,12,10,40,23.50
2014,07,12,10,41,23.40
2014,07,12,10,42,23.40
2014,07,12,10,43,23.30
2014,07,12,10,44,23.30
2014,07,12,10,45,23.30
2014,07,12,10,46,23.30
2014,07,12,10,47,23.10
2014,07,12,10,48,23.10
2014,07,12,10,49,23.20
2014,07,12,10,50,23.20
2014,07,12,10,51,23.30
2014,07,12,10,52,23.30
2014,07,12,10,53,23.40
2014,07,12,10,54,23.50
2014,07,12,10,55,23.60
2014,07,12,10,56,23.70
2014,07,12,10,57,23.60
2014,07,12,10,58,23.60
2014,07,12,10,59,23.60
2014,07,12,11,00,23.70
2014,07,12,11,01,23.80
2014,07,12,11,02,23.80
2014,07,12,11,03,23.80
2014,07,12,11,04,23.70
2014,07,12,11,05,23.70
2014,07,12,11,06,23.70
2014,07,12,11,07,23.60
2014,07,12,11,08,23.60
2014,07,12,11,09,23.60
2014,07,12,11,10,23.70
2014,07,12,11,11,23.70
2014,07,12,11,12,23.80
2014,07,12,11,13,23.80
2014,07,12,11,14,23.70
2014,07,12,11,15,23.70
2014,07,12,11,16,23.80
2014,07,12,11,17,23.80
2014,07,12,11,18,23.80
2014,07,12,11,19,23.90
2014,07,12,11,20,23.90
2014,07,12,11,21,23.90
2014,07,12,11,22,23.90
2014,07,12,11,23,23.80
2014,07,12,11,24,23.80
2014,07,12,11,25,23.70
2014,07,12,11,26,23.70
2014,07,12,11,27,23.90
2014,07,12,11,28,23.90
2014,07,12,11,29,24.10
2014,07,12,11,30,24.20
2014,07,12,11,31,24.20
2014,07,12,11,32,24.20
2014,07,12,11,33,24.30
2014,07,12,11,34,24.30
2014,07,12,11,35,24.40
2014,07,12,11,36,24.40
2014,07,12,11,37,24.50
2014,07,12,11,38,24.60
2014,07,12,11,39,24.60
2014,07,12,11,40,24.60
2014,07,12,11,41,24.60
2014,07,12,11,42,24.60
2014,07,12,11,43,24.60
2014,07,12,11,44,24.70
2014,07,12,11,45,24.70
2014,07,12,11,46,24.70
2014,07,12,11,47,24.50
2014,07,12,11,48,24.50
2014,07,12,11,49,24.40
2014,07,12,11,50,24.30
2014,07,12,11,51,24.40
2014,07,12,11,52,24.50
2014,07,12,11,53,24.60
2014,07,12,11,54,24.70
2014,07,12,11,55,24.70
2014,07,12,11,56,24.70
2014,07,12,11,57,24.70
2014,07,12,11,58,24.80
2014,07,12,11,59,24.80
2014,07,12,12,00,24.80
2014,07,12,12,01,24.90
2014,07,12,12,02,24.90
2014,07,12,12,03,25.00
2014,07,12,12,04,25.00
2014,07,12,12,05,25.00
2014,07,12,12,06,25.20
2014,07,12,12,07,25.30
2014,07,12,12,08,25.40
2014,07,12,12,09,25.40
2014,07,12,12,10,25.50
2014,07,12,12,11,25.50
2014,07,12,12,12,25.60
2014,07,12,12,13,25.70
2014,07,12,12,14,25.70
2014,07,12,12,15,25.80
2014,07,12,12,16,25.80
2014,07,12,12,17,25.90
2014,07,12,12,18,25.90
2014,07,12,12,19,26.00
2014,07,12,12,20,26.00
2014,07,12,12,21,25.90
2014,07,12,12,22,26.00
2014,07,12,12,23,26.00
2014,07,12,12,24,26.00
2014,07,12,12,25,25.90
2014,07,12,12,26,26.00
2014,07,12,12,27,26.00
2014,07,12,12,28,26.10
2014,07,12,12,29,26.20
2014,07,12,12,30,26.10
2014,07,12,12,31,26.10
2014,07,12,12,32,26.10
2014,07,12,12,33,26.10
2014,07,12,12,34,26.10
2014,07,12,12,35,26.10
2014,07,12,12,36,26.10
2014,07,12,12,37,26.10
2014,07,12,12,38,26.10
2014,07,12,12,39,26.10
2014,07,12,12,40,26.20
2014,07,12,12,41,26.30
2014,07,12,12,42,26.30
2014,07,12,12,43,26.30
2014,07,12,12,44,26.30
2014,07,12,12,45,26.20
2014,07,12,12,46,26.30
2014,07,12,12,47,26.20
2014,07,12,12,48,26.20
2014,07,12,12,49,26.20
2014,07,12,12,50,26.20
2014,07,12,12,51,26.30
2014,07,12,12,52,26.20
2014,07,12,12,53,26.20
2014,07,12,12,54,26.20
2014,07,12,12,55,26.40
2014,07,12,12,56,26.40
2014,07,12,12,57,26.50
2014,07,12,12,58,26.60
2014,07,12,12,59,26.70
2014,07,12,13,00,26.90
2014,07,12,13,01,27.00
2014,07,12,13,02,27.00
2014,07,12,13,03,26.90
2014,07,12,13,04,26.90
2014,07,12,13,05,26.90
2014,07,12,13,06,26.90
2014,07,12,13,07,26.90
2014,07,12,13,08,26.80
2014,07,12,13,09,26.90
2014,07,12,13,10,26.90
2014,07,12,13,11,26.90
2014,07,12,13,12,27.10
2014,07,12,13,13,27.30
2014,07,12,13,14,27.20
2014,07,12,13,15,27.30
2014,07,12,13,16,27.40
2014,07,12,13,17,27.60
2014,07,12,13,18,27.70
2014,07,12,13,19,27.90
2014,07,12,13,20,27.90
2014,07,12,13,21,27.90
2014,07,12,13,22,28.00
2014,07,12,13,23,28.10
2014,07,12,13,24,28.10
2014,07,12,13,25,28.10
2014,07,12,13,26,28.00
2014,07,12,13,27,27.80
2014,07,12,13,28,27.70
2014,07,12,13,29,27.80
2014,07,12,13,30,27.90
2014,07,12,13,31,28.00
2014,07,12,13,32,28.00
2014,07,12,13,33,28.00
2014,07,12,13,34,28.00
2014,07,12,13,35,28.20
2014,07,12,13,36,28.10
2014,07,12,13,37,28.30
2014,07,12,13,38,28.30
2014,07,12,13,39,28.30
2014,07,12,13,40,28.30
2014,07,12,13,41,28.30
2014,07,12,13,42,28.30
2014,07,12,13,43,28.40
2014,07,12,13,44,28.40
2014,07,12,13,45,28.30
2014,07,12,13,46,28.30
2014,07,12,13,47,28.20
2014,07,12,13,48,28.00
2014,07,12,13,49,27.80
2014,07,12,13,50,27.60
2014,07,12,13,51,27.40
2014,07,12,13,52,27.30
2014,07,12,13,53,27.20
2014,07,12,13,54,27.10
2014,07,12,13,55,27.00
2014,07,12,13,56,26.90
2014,07,12,13,57,26.90
2014,07,12,13,58,26.90
2014,07,12,13,59,26.90
2014,07,12,14,00,26.80
2014,07,12,14,01,26.80
2014,07,12,14,02,26.70
2014,07,12,14,03,26.70
2014,07,12,14,04,26.70
2014,07,12,14,05,26.90
2014,07,12,14,06,27.00
2014,07,12,14,07,27.10
2014,07,12,14,08,27.10
2014,07,12,14,09,27.20
2014,07,12,14,10,27.20
2014,07,12,14,11,27.10
2014,07,12,14,12,27.10
2014,07,12,14,13,27.10
2014,07,12,14,14,27.10
2014,07,12,14,15,27.10
2014,07,12,14,16,27.00
2014,07,12,14,17,26.90
2014,07,12,14,18,26.90
2014,07,12,14,19,27.00
2014,07,12,14,20,27.20
2014,07,12,14,21,27.20
2014,07,12,14,22,27.20
2014,07,12,14,23,27.10
2014,07,12,14,24,27.10
2014,07,12,14,25,27.10
2014,07,12,14,26,27.10
2014,07,12,14,27,27.10
2014,07,12,14,28,27.10
2014,07,12,14,29,27.10
2014,07,12,14,30,27.10
2014,07,12,14,31,27.20
2014,07,12,14,32,27.30
2014,07,12,14,33,27.40
2014,07,12,14,34,27.50
2014,07,12,14,35,27.40
2014,07,12,14,36,27.30
2014,07,12,14,37,27.20
2014,07,12,14,38,27.10
2014,07,12,14,39,26.90
2014,07,12,14,40,26.80
2014,07,12,14,41,26.70
2014,07,12,14,42,26.60
2014,07,12,14,43,26.60
2014,07,12,14,44,26.70
2014,07,12,14,45,26.80
2014,07,12,14,46,26.80
2014,07,12,14,47,26.80
2014,07,12,14,48,26.70
2014,07,12,14,49,26.60
2014,07,12,14,50,26.50
2014,07,12,14,51,26.40
2014,07,12,14,52,26.30
2014,07,12,14,53,26.40
2014,07,12,14,54,26.50
2014,07,12,14,55,26.60
2014,07,12,14,56,26.60
2014,07,12,14,57,26.70
2014,07,12,14,58,26.90
2014,07,12,14,59,27.00
2014,07,12,15,00,27.10
2014,07,12,15,01,27.20
2014,07,12,15,02,27.30
2014,07,12,15,03,27.30
2014,07,12,15,04,27.30
2014,07,12,15,05,27.30
2014,07,12,15,06,27.40
2014,07,12,15,07,27.40
2014,07,12,15,08,27.50
2014,07,12,15,09,27.60
2014,07,12,15,10,27.60
2014,07,12,15,11,27.70
2014,07,12,15,12,27.70
2014,07,12,15,13,27.70
2014,07,12,15,14,27.80
2014,07,12,15,15,27.80
2014,07,12,15,16,28.00
2014,07,12,15,17,28.00
2014,07,12,15,18,28.00
2014,07,12,15,19,28.10
2014,07,12,15,20,28.20
2014,07,12,15,21,28.20
2014,07,12,15,22,28.20
2014,07,12,15,23,28.20
2014,07,12,15,24,28.30
2014,07,12,15,25,28.30
2014,07,12,15,26,28.40
2014,07,12,15,27,28.50
2014,07,12,15,28,28.60
2014,07,12,15,29,28.60
2014,07,12,15,30,28.60
2014,07,12,15,31,28.60
2014,07,12,15,32,28.60
2014,07,12,15,33,28.70
2014,07,12,15,34,28.80
2014,07,12,15,35,28.70
2014,07,12,15,36,28.60
2014,07,12,15,37,28.50
2014,07,12,15,38,28.40
2014,07,12,15,39,28.30
2014,07,12,15,40,28.30
2014,07,12,15,41,28.40
2014,07,12,15,42,28.40
2014,07,12,15,43,28.50
2014,07,12,15,44,28.60
2014,07,12,15,45,28.80
2014,07,12,15,46,28.80
2014,07,12,15,47,28.80
2014,07,12,15,48,28.90
2014,07,12,15,49,28.90
2014,07,12,15,50,28.80
2014,07,12,15,51,28.90
2014,07,12,15,52,28.90
2014,07,12,15,53,28.90
2014,07,12,15,54,28.90
2014,07,12,15,55,28.90
2014,07,12,15,56,28.80
2014,07,12,15,57,28.80
2014,07,12,15,58,28.80
2014,07,12,15,59,28.80
2014,07,12,16,00,28.70
2014,07,12,16,01,28.70
2014,07,12,16,02,28.70
2014,07,12,16,03,28.80
2014,07,12,16,04,28.90
2014,07,12,16,05,28.90
2014,07,12,16,06,28.90
2014,07,12,16,07,29.00
2014,07,12,16,08,29.20
2014,07,12,16,09,29.30
2014,07,12,16,10,29.50
2014,07,12,16,11,29.50
2014,07,12,16,12,29.30
2014,07,12,16,13,29.20
2014,07,12,16,14,29.10
2014,07,12,16,15,29.00
2014,07,12,16,16,29.10
2014,07,12,16,17,29.10
2014,07,12,16,18,29.10
2014,07,12,16,19,29.10
2014,07,12,16,20,29.00
2014,07,12,16,21,28.90
2014,07,12,16,22,28.90
2014,07,12,16,23,28.90
2014,07,12,16,24,28.90
2014,07,12,16,25,28.90
2014,07,12,16,26,28.90
2014,07,12,16,27,28.90
2014,07,12,16,28,28.90
2014,07,12,16,29,28.90
2014,07,12,16,30,28.90
2014,07,12,16,31,28.90
2014,07,12,16,32,28.80
2014,07,12,16,33,28.80
2014,07,12,16,34,28.90
2014,07,12,16,35,28.90
2014,07,12,16,36,28.90
2014,07,12,16,37,28.90
2014,07,12,16,38,28.80
2014,07,12,16,39,28.90
2014,07,12,16,40,28.90
2014,07,12,16,41,28.90
2014,07,12,16,42,28.90
2014,07,12,16,43,29.10
2014,07,12,16,44,29.20
2014,07,12,16,45,29.10
2014,07,12,16,46,28.90
2014,07,12,16,47,28.90
2014,07,12,16,48,28.90
2014,07,12,16,49,28.90
2014,07,12,16,50,29.00
2014,07,12,16,51,29.10
2014,07,12,16,52,29.00
2014,07,12,16,53,28.90
2014,07,12,16,54,28.90
2014,07,12,16,55,28.90
2014,07,12,16,56,28.90
2014,07,12,16,57,28.90
2014,07,12,16,58,28.90
2014,07,12,16,59,28.90
2014,07,12,17,00,28.90
2014,07,12,17,01,28.90
2014,07,12,17,02,28.90
2014,07,12,17,03,28.90
2014,07,12,17,04,28.90
2014,07,12,17,05,29.10
2014,07,12,17,06,29.10
2014,07,12,17,07,29.10
2014,07,12,17,08,29.20
2014,07,12,17,09,29.20
2014,07,12,17,10,29.30
2014,07,12,17,11,29.30
2014,07,12,17,12,29.30
2014,07,12,17,13,29.30
2014,07,12,17,14,29.30
2014,07,12,17,15,29.20
2014,07,12,17,16,29.10
2014,07,12,17,17,29.10
2014,07,12,17,18,28.90
2014,07,12,17,19,28.90
2014,07,12,17,20,28.90
2014,07,12,17,21,28.80
2014,07,12,17,22,28.80
2014,07,12,17,23,28.80
2014,07,12,17,24,29.00
2014,07,12,17,25,29.10
2014,07,12,17,26,29.30
2014,07,12,17,27,29.30
2014,07,12,17,28,29.30
2014,07,12,17,29,29.30
2014,07,12,17,30,29.40
2014,07,12,17,31,29.40
2014,07,12,17,32,29.40
2014,07,12,17,33,29.30
2014,07,12,17,34,29.30
2014,07,12,17,35,29.30
2014,07,12,17,36,29.50
2014,07,12,17,37,29.50
2014,07,12,17,38,29.40
2014,07,12,17,39,29.40
2014,07,12,17,40,29.30
2014,07,12,17,41,29.20
2014,07,12,17,42,29.10
2014,07,12,17,43,29.10
2014,07,12,17,44,29.10
2014,07,12,17,45,29.20
2014,07,12,17,46,29.40
2014,07,12,17,47,29.50
2014,07,12,17,48,29.50
2014,07,12,17,49,29.60
2014,07,12,17,50,29.60
2014,07,12,17,51,29.70
2014,07,12,17,52,29.80
2014,07,12,17,53,29.70
2014,07,12,17,54,29.70
2014,07,12,17,55,29.80
2014,07,12,17,56,29.70
2014,07,12,17,57,29.60
2014,07,12,17,58,29.40
2014,07,12,17,59,29.30
2014,07,12,18,00,29.30
2014,07,12,18,01,29.30
2014,07,12,18,02,29.40
2014,07,12,18,03,29.30
2014,07,12,18,04,29.30
2014,07,12,18,05,29.40
2014,07,12,18,06,29.40
2014,07,12,18,07,29.40
2014,07,12,18,08,29.40
2014,07,12,18,09,29.20
2014,07,12,18,10,29.20
2014,07,12,18,11,29.20
2014,07,12,18,12,29.10
2014,07,12,18,13,29.10
2014,07,12,18,14,29.00
2014,07,12,18,15,28.90
2014,07,12,18,16,28.90
2014,07,12,18,17,28.90
2014,07,12,18,18,28.90
2014,07,12,18,19,28.90
2014,07,12,18,20,28.90
2014,07,12,18,21,28.90
2014,07,12,18,22,28.90
2014,07,12,18,23,28.90
2014,07,12,18,24,28.90
2014,07,12,18,25,28.90
2014,07,12,18,26,28.90
2014,07,12,18,27,28.90
2014,07,12,18,28,28.90
2014,07,12,18,29,28.80
2014,07,12,18,30,28.70
2014,07,12,18,31,28.70
2014,07,12,18,32,28.70
2014,07,12,18,33,28.70
2014,07,12,18,34,28.70
2014,07,12,18,35,28.80
2014,07,12,18,36,28.80
2014,07,12,18,37,28.80
2014,07,12,18,38,28.70
2014,07,12,18,39,28.60
2014,07,12,18,40,28.50
2014,07,12,18,41,28.30
2014,07,12,18,42,28.30
2014,07,12,18,43,28.20
2014,07,12,18,44,28.10
2014,07,12,18,45,28.20
2014,07,12,18,46,28.20
2014,07,12,18,47,28.20
2014,07,12,18,48,28.30
2014,07,12,18,49,28.30
2014,07,12,18,50,28.40
2014,07,12,18,51,28.40
2014,07,12,18,52,28.40
2014,07,12,18,53,28.30
2014,07,12,18,54,28.30
2014,07,12,18,55,28.30
2014,07,12,18,56,28.30
2014,07,12,18,57,28.30
2014,07,12,18,58,28.30
2014,07,12,18,59,28.30
2014,07,12,19,00,28.30
2014,07,12,19,01,28.20
2014,07,12,19,02,28.20
2014,07,12,19,03,28.10
2014,07,12,19,04,28.10
2014,07,12,19,05,28.00
2014,07,12,19,06,28.00
2014,07,12,19,07,27.90
2014,07,12,19,08,27.90
2014,07,12,19,09,27.90
2014,07,12,19,10,27.90
2014,07,12,19,11,28.00
2014,07,12,19,12,28.00
2014,07,12,19,13,28.00
2014,07,12,19,14,27.90
2014,07,12,19,15,27.90
2014,07,12,19,16,27.90
2014,07,12,19,17,27.80
2014,07,12,19,18,27.80
2014,07,12,19,19,27.80
2014,07,12,19,20,27.80
2014,07,12,19,21,27.80
2014,07,12,19,22,27.80
2014,07,12,19,23,27.70
2014,07,12,19,24,27.70
2014,07,12,19,25,27.70
2014,07,12,19,26,27.60
2014,07,12,19,27,27.70
2014,07,12,19,28,27.80
2014,07,12,19,29,27.70
2014,07,12,19,30,27.60
2014,07,12,19,31,27.50
2014,07,12,19,32,27.40
2014,07,12,19,33,27.30
2014,07,12,19,34,27.30
2014,07,12,19,35,27.30
2014,07,12,19,36,27.20
2014,07,12,19,37,27.10
2014,07,12,19,38,27.00
2014,07,12,19,39,26.90
2014,07,12,19,40,26.90
2014,07,12,19,41,26.80
2014,07,12,19,42,26.80
2014,07,12,19,43,26.70
2014,07,12,19,44,26.70
2014,07,12,19,45,26.60
2014,07,12,19,46,26.60
2014,07,12,19,47,26.60
2014,07,12,19,48,26.60
2014,07,12,19,49,26.60
2014,07,12,19,50,26.60
2014,07,12,19,51,26.60
2014,07,12,19,52,26.60
2014,07,12,19,53,26.60
2014,07,12,19,54,26.60
2014,07,12,19,55,26.60
2014,07,12,19,56,26.60
2014,07,12,19,57,26.60
2014,07,12,19,58,26.60
2014,07,12,19,59,26.60
2014,07,12,20,00,26.60
2014,07,12,20,01,26.60
2014,07,12,20,02,26.60
2014,07,12,20,03,26.60
2014,07,12,20,04,26.60
2014,07,12,20,05,26.60
2014,07,12,20,06,26.60
2014,07,12,20,07,26.60
2014,07,12,20,08,26.60
2014,07,12,20,09,26.60
2014,07,12,20,10,26.60
2014,07,12,20,11,26.60
